TimeNZDT,TemperatureF,Dew PointF,Humidity,Sea Level PressureIn,VisibilityMPH,Wind Direction,Wind SpeedMPH,Gust SpeedMPH,PrecipitationIn,Events,Conditions,WindDirDegrees,DateUTC
12:50 AM,-27.4,-9999,N/A,29.05,6.2,NE,15.0,-,N/A,Snow,Low Drifting Snow,40,2012-11-15 11:50:00
1:00 AM,-28,,,,7,NE,15.0,,,Snow,Low Drifting Snow,40,2012-11-15 12:00:00
1:50 AM,-27.4,-9999,N/A,29.06,6.2,ENE,8.1,-,N/A,,Partly Cloudy,60,2012-11-15 12:50:00
2:50 AM,-27.4,-9999,N/A,29.05,6.2,ENE,15.0,-,N/A,Snow,Low Drifting Snow,60,2012-11-15 13:50:00
3:50 AM,-27.4,-9999,N/A,29.04,6.2,ENE,11.5,-,N/A,,Partly Cloudy,70,2012-11-15 14:50:00
4:50 AM,-27.4,-9999,N/A,29.04,6.2,East,10.4,-,N/A,,Clear,80,2012-11-15 15:50:00
5:50 AM,-29.2,-9999,N/A,29.04,6.2,East,11.5,-,N/A,,Clear,80,2012-11-15 16:50:00
6:50 AM,-29.2,-9999,N/A,29.03,6.2,East,13.8,-,N/A,,Clear,80,2012-11-15 17:50:00
7:00 AM,-29,,,,7,East,13.8,,,,,80,2012-11-15 18:00:00
7:50 AM,-27.4,-9999,N/A,29.02,6.2,East,12.7,-,N/A,,Clear,80,2012-11-15 18:50:00
8:50 AM,-27.4,-9999,N/A,29.00,6.2,East,12.7,-,N/A,,Partly Cloudy,80,2012-11-15 19:50:00
9:50 AM,-27.4,-9999,N/A,28.99,6.2,East,13.8,-,N/A,,Partly Cloudy,90,2012-11-15 20:50:00
10:50 AM,-27.4,-9999,N/A,28.97,6.2,East,16.1,-,N/A,,Scattered Clouds,90,2012-11-15 21:50:00
11:50 AM,-27.4,-9999,N/A,28.96,6.2,East,15.0,-,N/A,,Scattered Clouds,90,2012-11-15 22:50:00
12:50 PM,-25.6,-9999,N/A,28.93,6.2,East,15.0,-,N/A,,Scattered Clouds,80,2012-11-15 23:50:00
1:00 PM,-26,,,,7,East,15.0,,,,Clear,80,2012-11-16 00:00:00
1:50 PM,-25.6,-9999,N/A,28.92,6.2,East,15.0,-,N/A,,Partly Cloudy,90,2012-11-16 00:50:00
2:50 PM,-25.6,-9999,N/A,28.90,6.2,East,13.8,-,N/A,,Partly Cloudy,90,2012-11-16 01:50:00
3:50 PM,-27.4,-9999,N/A,28.86,6.2,East,17.3,-,N/A,,Partly Cloudy,80,2012-11-16 02:50:00
4:50 PM,-27.4,-9999,N/A,28.85,6.2,East,15.0,-,N/A,,Partly Cloudy,100,2012-11-16 03:50:00
6:50 PM,-29.2,-9999,N/A,28.83,6.2,East,16.1,-,N/A,,Partly Cloudy,80,2012-11-16 05:50:00
7:00 PM,-29,,,,7,East,15.0,,,,Scattered Clouds,80,2012-11-16 06:00:00